THORAD AGENA D DEB

Satellite information

Favourite Embed

Satellite Type and Status

DEBRISIN ORBIT

Key statistics

Satellite THORAD AGENA D DEB at a glance.

Uptime

20283

Days in orbit

Revolutions

≈ 14.3

Per day

Orbit

SSO

Sun Synchronous Orbit

Inclination

99.7

Latest

Satellite identification and parameters

Extended collection of information and parameters for THORAD AGENA D DEB.

Object identification

Identified? True

Debris? True

Object name: THORAD AGENA D DEB

International designator: 1970-025JS

Object number (NORAD): 5149

Object ID (CCSDS): 5149

Country: UNITED STATES OF AMERICA (US)

Current information (Y/N): Y

RCS size: SMALL

Orbital parameters

Period: 100.861 minutes

Inclination: 99.6545 deg

SMA: 7177.543 km

Apoapsis: 837.026 km

Periapsis: 761.79 km

RAAN: 311.3057 deg

Eccentricy: 0.00524105

Argument of periapsis: 98.564 deg

Mean anomaly: 262.1481 deg

Mean motion: 14.27706795 rev/day

Mean motion (dot): 0.00004554 rev/day2

B* drag term: 0.0018392152 1/REarth

Two-line elements (TLE)

Creation date: Oct. 19, 2025, 2:20 a.m.

Reference frame: TEME

Reference center: EARTH

Epoch: Oct. 18, 2025, 11:16 p.m. UTC

TLE line 0: 0 THORAD AGENA D DEB

TLE line 1: 1 05149U 70025JS 25291.96965450 .00004554 00000-0 18392-2 0 9999

TLE line 2: 2 05149 99.6545 311.3057 0052411 98.5640 262.1481 14.27706795827182

Live tracking on map

Real-time ground track for satellite THORAD AGENA D DEB.

In-orbit conjunctions

A list of the most updated potential collisions computed for object THORAD AGENA D DEB.

Target Orbit TCA Probability of collision Miss distance Type
COSMOS 1844 LEO 2025-04-15 10:21:14 0.003654478 173.0 (m) PAYLOAD
DMSP 5D-3 F19 DEB SSO 2025-03-05 19:42:31 0.0002337186 63.0 (m) DEBRIS
THOR BURNER 2 R/B SSO 2024-11-28 16:06:18 0.0001408627 322.0 (m) ROCKET BODY
COSMOS 676 LEO 2024-11-10 21:10:12 0.0007686071 955.0 (m) PAYLOAD
NOAA 16 DEB SSO 2024-09-27 13:44:56 0.0006544798 129.0 (m) DEBRIS

Associated space launch

Meteorological research and development satellite

THORAD AGENA D DEB was lifted into orbit during the mission ‘Thorad SLV-2G Agena D | Nimbus 4’, on board a Thorad SLV-2G Agena D space rocket.

The launch took place on April 8, 1970, 8:17 a.m. from Space Launch Complex 2E.

For more information about the launch, click the button.

Launch to space Thorad SLV-2G Agena D | Nimbus 4
Thorad SLV-2G Agena D | Nimbus 4

Agency: N/A

Status: Launch Successful

Launch date: April 8, 1970, 8:17 a.m. UTC

Rocket: Thorad SLV-2G Agena D

Launch pad: Space Launch Complex 2E

Location: Vandenberg SFB, CA, USA

...

Latest news about this satellite

There are no fresh news available about this satellite. Check back as we update our databases every day.


Newsletter sign-up

Weekly statistics, charts and insights to help you stay on top of the space industry.